Tracking 31027 objects as of 19-Jul-2025
HD Live streaming from Space Station
objects crossing your sky now

ACTS

Track ACTS now!
ACTS is classified as:


NORAD ID: 22796
Int'l Code: 1993-058B
Perigee: 35,575.4 km
Apogee: 36,012.0 km
Inclination: 14.6 °
Period: 1,436.1 minutes
Semi major axis: 42164 km
RCS: 21.8582 m2 (large)
Launch date: September 12, 1993
Source: United States (US)
Launch site: AIR FORCE EASTERN TEST RANGE (AFETR)
Your satellite tracking list
MOLNIYA 1-86
Track 1 satellite(s)




NASA's NSSDC Master Catalog

Two Line Element Set (TLE):
1 22796U 93058B   25199.32962985 -.00000116  00000-0  00000-0 0  9990
2 22796  14.5860 358.1200 0051775  75.4034 236.5451  1.00272028123553
Source of the keplerian elements: AFSPC